EW3591 Weather Reports


time (UTC)temp
F
wind
direction
speed
knots
gust
knots
rain 1hr
in
rain 24hr
in
rain mn
in
humidity
%
barometer
mb
20260902165506 82 233 1.7 7.0 0.00 0.05 0.05 88 1014.3
20260902165309 81 215 1.7 7.0 0.00 0.05 0.05 88 1014.3
20260902165105 81 202 2.6 7.0 0.00 0.05 0.05 88 1014.4
20260902164905 81 215 2.6 7.0 0.00 0.05 0.05 88 1014.6
20260902164704 81 224 2.6 6.1 0.00 0.05 0.05 90 1014.6
20260902164504 80 225 3.5 6.1 0.00 0.05 0.05 89 1014.7
20260902164304 80 218 1.7 6.1 0.00 0.05 0.05 90 1014.8
20260902164103 80 207 2.6 6.1 0.00 0.05 0.05 90 1014.8
20260902163903 80 220 2.6 6.1 0.00 0.05 0.05 90 1014.8
20260902163703 80 235 1.7 6.1 0.00 0.05 0.05 91 1014.8
20260902163503 79 226 1.7 6.1 0.00 0.05 0.05 91 1014.9
20260902163302 79 202 2.6 6.1 0.00 0.05 0.05 91 1014.9
20260902163102 79 191 2.6 6.1 0.00 0.05 0.05 90 1014.9
20260902162902 79 229 2.6 6.1 0.00 0.05 0.05 90 1015.0
20260902162701 79 189 2.6 6.1 0.00 0.05 0.05 90 1015.0
20260902162501 79 173 1.7 6.1 0.00 0.05 0.05 91 1015.0
20260902162301 79 214 1.7 5.2 0.00 0.05 0.05 92 1015.1
20260902162100 78 256 1.7 5.2 0.00 0.05 0.05 93 1015.1
20260902161900 78 261 1.7 4.3 0.00 0.05 0.05 93 1015.0
20260902161700 78 235 0.9 5.2 0.00 0.05 0.05 94 1015.1
20260902161459 77 209 0.9 5.2 0.00 0.05 0.05 95 1015.0
20260902161259 77 230 1.7 5.2 0.00 0.05 0.05 95 1015.0
20260902161059 76 226 1.7 5.2 0.00 0.05 0.05 95 1015.0
20260902160858 76 181 0.9 5.2 0.00 0.05 0.05 96 1015.1
20260902160658 76 197 1.7 4.3 0.00 0.05 0.05 96 1015.1
20260902160458 76 234 0.9 4.3 0.01 0.05 0.05 95 1015.2
20260902160258 76 228 1.7 4.3 0.02 0.05 0.05 96 1015.2
20260902160057 75 202 1.7 4.3 0.05 0.05 0.05 96 1015.2
20260902155857 75 249 1.7 4.3 0.05 0.05 0.05 96 1015.3
20260902155657 75 214 1.7 4.3 0.05 0.05 0.05 96 1015.2
20260902155456 75 197 1.7 4.3 0.05 0.05 0.05 96 1015.2
20260902155256 75 195 1.7 4.3 0.05 0.05 0.05 97 1015.2
20260902155056 75 220 1.7 4.3 0.05 0.05 0.05 97 1015.2
20260902154855 75 239 0.9 4.3 0.05 0.05 0.05 97 1015.2
20260902154655 75 243 0.9 4.3 0.05 0.05 0.05 97 1015.2
20260902154455 74 222 1.7 4.3 0.05 0.05 0.05 97 1015.1
20260902154254 74 225 1.7 5.2 0.05 0.05 0.05 97 1015.1
20260902154054 74 230 0.9 5.2 0.05 0.05 0.05 97 1015.1
20260902153854 74 217 0.9 5.2 0.05 0.05 0.05 97 1015.1
20260902153653 74 238 1.7 5.2 0.05 0.05 0.05 98 1015.0
20260902153453 74 254 1.7 5.2 0.05 0.05 0.05 98 1015.0
20260902153253 74 235 0.9 3.5 0.05 0.05 0.05 98 1015.0
20260902153052 74 229 1.7 5.2 0.05 0.05 0.05 98 1015.1
20260902152852 74 224 0.9 5.2 0.05 0.05 0.05 98 1015.0
20260902152652 74 225 0.9 5.2 0.05 0.05 0.05 98 1015.1
20260902152452 74 210 1.7 6.1 0.05 0.05 0.05 97 1015.0
20260902152251 74 204 2.6 6.1 0.05 0.05 0.05 97 1015.1
20260902152051 74 214 1.7 6.1 0.05 0.05 0.05 97 1015.1
20260902151851 74 217 1.7 6.1 0.05 0.05 0.05 97 1015.0
20260902151650 74 215 2.6 6.1 0.05 0.05 0.05 97 1015.0
20260902151450 74 211 0.9 6.1 0.05 0.05 0.05 97 1015.0
20260902151250 75 213 1.7 4.3 0.05 0.05 0.05 97 1015.0
20260902151049 75 220 1.7 4.3 0.05 0.05 0.05 97 1015.0
20260902150849 75 215 2.6 4.3 0.05 0.05 0.05 96 1015.0
20260902150649 75 225 1.7 4.3 0.05 0.05 0.05 96 1015.0
20260902150448 76 205 0.0 4.3 0.04 0.04 0.04 96 1014.8
20260902150248 76 218 0.9 4.3 0.03 0.03 0.03 96 1014.6
20260902150048 76 237 0.9 4.3 0.00 0.00 0.00 96 1014.8
20260902145848 76 238 0.9 1.7 0.00 0.00 0.00 96 1015.2
20260902145647 76 238 0.9 1.7 0.00 0.00 0.00 96 1015.3
20260902145447 76 239 0.9 1.7 0.00 0.00 0.00 96 1015.2
20260902145247 76 233 0.0 2.6 0.00 0.00 0.00 96 1015.3
20260902145046 76 229 0.9 2.6 0.00 0.00 0.00 96 1015.3
20260902144846 76 228 0.0 2.6 0.00 0.00 0.00 96 1015.2
20260902144646 76 228 0.9 2.6 0.00 0.00 0.00 96 1015.2
20260902144445 76 228 0.9 2.6 0.00 0.00 0.00 96 1015.2
20260902144245 76 228 0.9 2.6 0.00 0.00 0.00 96 1015.3
20260902144045 76 228 0.9 1.7 0.00 0.00 0.00 96 1015.3
20260902143844 76 228 0.0 1.7 0.00 0.00 0.00 96 1015.3
20260902143644 75 228 0.9 1.7 0.00 0.00 0.00 96 1015.1
20260902143444 75 228 0.0 1.7 0.00 0.00 0.00 96 1015.1
20260902143243 75 228 0.0 0.9 0.00 0.00 0.00 97 1015.0
20260902143043 75 0 0.0 1.7 0.00 0.00 0.00 97 1015.1
20260902142843 75 228 0.0 1.7 0.00 0.00 0.00 97 1015.0
20260902142643 75 228 0.0 1.7 0.00 0.00 0.00 97 1015.0
20260902142442 75 228 0.0 1.7 0.00 0.00 0.00 97 1015.1
20260902142242 75 228 0.9 1.7 0.00 0.00 0.00 97 1015.1
20260902142042 75 228 0.0 1.7 0.00 0.00 0.00 98 1015.2
20260902141841 75 228 0.0 0.9 0.00 0.00 0.00 98 1015.2
20260902141641 74 228 0.0 3.5 0.00 0.00 0.00 98 1015.2
20260902141441 74 227 0.0 3.5 0.00 0.00 0.00 98 1015.2
20260902141240 74 227 0.0 3.5 0.00 0.00 0.00 98 1015.3
20260902141040 74 223 0.0 3.5 0.00 0.00 0.00 98 1015.2
20260902140840 74 221 0.9 3.5 0.00 0.00 0.00 98 1015.2
20260902140639 74 227 0.0 3.5 0.00 0.00 0.00 99 1015.3
20260902140439 74 0 0.0 0.9 0.00 0.00 0.00 99 1015.3
20260902140239 74 227 0.0 0.9 0.00 0.00 0.00 99 1015.3
20260902140038 74 78 0.0 1.7 0.00 0.00 0.00 99 1015.3
20260902135838 73 73 0.0 1.7 0.00 0.00 0.00 99 1015.3
20260902135638 73 0 0.0 1.7 0.00 0.00 0.00 99 1015.3
20260902135438 73 0 0.0 1.7 0.00 0.00 0.00 99 1015.3
20260902135237 73 72 0.0 1.7 0.00 0.00 0.00 99 1015.2
20260902135037 73 62 0.0 1.7 0.00 0.00 0.00 100 1015.2
20260902134837 73 72 0.0 1.7 0.00 0.00 0.00 99 1015.2
20260902134636 73 230 0.0 1.7 0.00 0.00 0.00 100 1015.2
20260902134436 73 240 0.0 1.7 0.00 0.00 0.00 100 1015.2
20260902134236 73 253 0.0 1.7 0.00 0.00 0.00 100 1015.2
20260902134035 73 21 0.0 0.9 0.00 0.00 0.00 100 1015.2
20260902133835 73 21 0.0 0.9 0.00 0.00 0.00 100 1015.2
20260902133635 73 21 0.0 0.9 0.00 0.00 0.00 100 1015.2
20260902133434 73 22 0.0 0.9 0.00 0.00 0.00 100 1015.2
20260902133234 73 26 0.0 0.9 0.00 0.00 0.00 100 1015.3
20260902133034 73 27 0.0 0.9 0.00 0.00 0.00 100 1015.2
20260902132833 73 27 0.0 0.9 0.00 0.00 0.00 100 1015.2
20260902132633 73 27 0.0 0.9 0.00 0.00 0.00 100 1015.2
20260902132433 73 0 0.0 0.9 0.00 0.00 0.00 100 1015.2
20260902132232 73 0 0.0 0.9 0.00 0.00 0.00 100 1015.2
20260902132032 73 0 0.0 0.9 0.00 0.00 0.00 100 1015.1
20260902131832 73 27 0.0 0.9 0.00 0.00 0.00 100 1015.2
20260902131632 72 27 0.0 0.9 0.00 0.00 0.00 100 1015.2
20260902131431 72 27 0.0 0.9 0.00 0.00 0.00 100 1015.1
20260902131231 73 27 0.0 0.9 0.00 0.00 0.00 100 1015.1
20260902131031 73 27 0.0 0.9 0.00 0.00 0.00 100 1015.1
20260902130830 73 0 0.0 0.9 0.00 0.00 0.00 100 1015.1
20260902130630 73 27 0.0 0.9 0.00 0.00 0.00 100 1015.1
20260902130430 73 27 0.0 0.9 0.00 0.00 0.00 100 1015.1
20260902130229 73 0 0.0 0.9 0.00 0.00 0.00 100 1015.1
20260902130029 73 0 0.0 0.9 0.00 0.00 0.00 100 1015.0
20260902125829 73 0 0.0 1.7 0.00 0.00 0.00 100 1015.0
20260902125628 73 27 0.0 1.7 0.00 0.00 0.00 100 1015.0
20260902125428 73 0 0.0 1.7 0.00 0.00 0.00 100 1015.1
20260902125228 73 49 0.0 1.7 0.00 0.00 0.00 100 1015.0
20260902125027 73 49 0.0 1.7 0.00 0.00 0.00 100 1015.0
20260902124827 73 220 0.0 0.9 0.00 0.00 0.00 100 1014.9
20260902124627 73 220 0.0 0.9 0.00 0.00 0.00 100 1014.9
20260902124427 73 220 0.0 0.9 0.00 0.00 0.00 100 1014.9
20260902124226 73 220 0.0 0.9 0.00 0.00 0.00 100 1014.8
20260902124026 73 0 0.0 0.9 0.00 0.00 0.00 100 1014.8
20260902123826 73 0 0.0 0.9 0.00 0.00 0.00 100 1014.8
20260902123625 73 0 0.0 0.9 0.00 0.00 0.00 100 1014.8
20260902123425 73 220 0.0 0.9 0.00 0.00 0.00 100 1014.7
20260902123225 73 220 0.0 0.9 0.00 0.00 0.00 100 1014.8
20260902123024 73 0 0.0 0.9 0.00 0.00 0.00 100 1014.7
20260902122824 72 0 0.0 0.9 0.00 0.00 0.00 100 1014.6
20260902122624 72 220 0.0 0.9 0.00 0.00 0.00 100 1014.6
20260902122423 72 220 0.0 0.9 0.00 0.00 0.00 100 1014.7
20260902122223 72 220 0.0 0.9 0.00 0.00 0.00 100 1014.7
20260902122023 72 0 0.0 0.9 0.00 0.00 0.00 100 1014.8
20260902121822 72 220 0.0 0.9 0.00 0.00 0.00 100 1014.8
20260902121622 72 220 0.0 0.9 0.00 0.00 0.00 100 1014.7
20260902121422 72 220 0.0 0.9 0.00 0.00 0.00 100 1014.7
20260902121222 72 220 0.0 0.9 0.00 0.00 0.00 100 1014.7
20260902121021 72 220 0.0 0.9 0.00 0.00 0.00 100 1014.7
20260902120821 72 220 0.0 0.9 0.00 0.00 0.00 100 1014.8
20260902120621 72 220 0.0 0.9 0.00 0.00 0.00 100 1014.8
20260902120420 72 0 0.0 0.9 0.00 0.00 0.00 100 1014.8
20260902120220 72 220 0.0 1.7 0.00 0.00 0.00 100 1014.7
20260902120020 72 220 0.0 2.6 0.00 0.00 0.00 100 1014.7
20260902115819 72 220 0.0 2.6 0.00 0.00 0.00 100 1014.8
20260902115619 72 194 0.0 2.6 0.00 0.00 0.00 100 1014.9
20260902115419 72 185 0.9 2.6 0.00 0.00 0.00 100 1014.9
20260902115218 72 209 0.9 2.6 0.00 0.00 0.00 100 1014.9
20260902115018 72 246 0.0 2.6 0.00 0.00 0.00 100 1014.9
20260902114818 72 246 0.0 2.6 0.00 0.00 0.00 100 1014.8
20260902114618 72 246 0.9 3.5 0.00 0.00 0.00 100 1014.7
20260902114417 72 237 0.9 3.5 0.00 0.00 0.00 100 1014.7
20260902114217 72 205 0.9 4.3 0.00 0.00 0.00 100 1014.7
20260902114017 72 223 0.9 5.2 0.00 0.00 0.00 100 1014.7
20260902113816 72 210 0.9 5.2 0.00 0.00 0.00 100 1014.7
20260902113616 72 197 0.9 5.2 0.00 0.00 0.00 100 1014.7
20260902113416 72 213 1.7 5.2 0.00 0.00 0.00 100 1014.7
20260902113215 72 224 1.7 3.5 0.00 0.00 0.00 100 1014.7
20260902113015 72 226 0.9 3.5 0.00 0.00 0.00 100 1014.7
20260902112815 72 240 0.9 3.5 0.00 0.00 0.00 100 1014.6
20260902112614 71 238 0.9 2.6 0.00 0.00 0.00 100 1014.6
20260902112414 71 234 0.0 4.3 0.00 0.00 0.00 100 1014.6
20260902112214 71 234 0.0 4.3 0.00 0.00 0.00 100 1014.6
20260902112013 71 234 0.9 4.3 0.00 0.00 0.00 100 1014.6
20260902111813 71 224 0.9 4.3 0.00 0.00 0.00 100 1014.4
20260902111613 71 131 0.9 4.3 0.00 0.00 0.00 100 1014.3
20260902111412 71 133 1.7 4.3 0.00 0.00 0.00 100 1014.2
20260902111212 71 230 0.9 4.3 0.00 0.00 0.00 100 1014.2
20260902111012 71 243 1.7 5.2 0.00 0.00 0.00 100 1014.1
20260902110812 71 212 0.9 5.2 0.00 0.00 0.00 100 1014.0
20260902110611 71 201 1.7 5.2 0.00 0.00 0.00 100 1013.9
20260902110411 71 216 2.6 5.2 0.00 0.00 0.00 100 1013.8
20260902110211 71 207 1.7 5.2 0.00 0.00 0.00 100 1013.8
20260902110010 71 204 1.7 4.3 0.00 0.00 0.00 100 1013.9
20260902105810 71 181 1.7 5.2 0.00 0.00 0.00 100 1013.8
20260902105610 71 200 1.7 5.2 0.00 0.00 0.00 100 1013.8
20260902105409 70 182 1.7 5.2 0.00 0.00 0.00 100 1013.8
20260902105209 70 193 2.6 5.2 0.00 0.00 0.00 100 1013.7
20260902105009 70 231 1.7 5.2 0.00 0.00 0.00 100 1013.7
20260902104808 70 242 1.7 5.2 0.00 0.00 0.00 100 1013.6
20260902104608 70 247 1.7 5.2 0.00 0.00 0.00 100 1013.5
20260902104408 70 232 0.9 5.2 0.00 0.00 0.00 100 1013.4
20260902104208 70 218 1.7 4.3 0.00 0.00 0.00 100 1013.2
20260902104007 70 201 1.7 4.3 0.00 0.00 0.00 100 1013.2
20260902103807 70 238 0.9 4.3 0.00 0.00 0.00 100 1013.2
20260902103607 70 247 0.9 4.3 0.00 0.00 0.00 100 1013.1
20260902103406 70 223 1.7 4.3 0.00 0.00 0.00 100 1013.1
20260902103206 70 222 1.7 4.3 0.00 0.00 0.00 100 1013.1
20260902103006 70 222 1.7 3.5 0.00 0.00 0.00 100 1013.0
20260902102805 70 214 1.7 3.5 0.00 0.00 0.00 100 1013.0
20260902102605 70 211 0.0 2.6 0.00 0.00 0.00 100 1013.0
20260902102405 70 218 0.9 2.6 0.00 0.00 0.00 100 1013.0
20260902102204 70 228 0.9 2.6 0.00 0.00 0.00 100 1012.9
20260902102004 70 237 0.0 2.6 0.00 0.00 0.00 100 1012.9
20260902101804 70 236 0.9 3.5 0.00 0.00 0.00 100 1012.9
20260902101603 70 231 0.0 3.5 0.00 0.00 0.00 100 1012.9
20260902101403 70 217 0.9 3.5 0.00 0.00 0.00 100 1013.0
20260902101203 70 214 0.9 3.5 0.00 0.00 0.00 100 1013.0
20260902101002 70 227 0.9 3.5 0.00 0.00 0.00 100 1013.2
20260902100802 70 226 0.9 2.6 0.00 0.00 0.00 100 1013.2
20260902100602 70 244 0.0 2.6 0.00 0.00 0.00 100 1013.4
20260902100402 70 240 0.9 3.5 0.00 0.00 0.00 100 1013.4
20260902100201 70 226 0.9 3.5 0.00 0.00 0.00 100 1013.4
20260902100001 70 233 0.9 3.5 0.00 0.00 0.00 100 1013.5
20260902095801 70 242 0.9 3.5 0.00 0.00 0.00 100 1013.4
20260902095600 70 219 1.7 3.5 0.00 0.00 0.00 100 1013.5
20260902095400 70 234 0.9 3.5 0.00 0.00 0.00 100 1013.5
20260902095200 70 238 0.9 3.5 0.00 0.00 0.00 100 1013.4
20260902094959 70 232 0.9 3.5 0.00 0.00 0.00 100 1013.4
20260902094759 70 246 0.0 1.7 0.00 0.00 0.00 100 1013.4
20260902094559 70 206 0.9 3.5 0.00 0.00 0.00 100 1013.3
20260902094358 70 230 0.0 3.5 0.00 0.00 0.00 100 1013.3
20260902094158 70 222 0.9 3.5 0.00 0.00 0.00 100 1013.3
20260902093958 70 215 0.9 3.5 0.00 0.00 0.00 100 1013.3
20260902093757 70 218 1.7 3.5 0.00 0.00 0.00 100 1013.2
20260902093557 70 231 0.9 3.5 0.00 0.00 0.00 100 1013.2
20260902093357 70 206 0.9 4.3 0.00 0.00 0.00 100 1013.2
20260902093157 70 219 1.7 4.3 0.00 0.00 0.00 100 1013.4
20260902092956 70 220 1.7 4.3 0.00 0.00 0.00 100 1013.4
20260902092756 70 213 1.7 4.3 0.00 0.00 0.00 100 1013.5
20260902092556 70 228 1.7 4.3 0.00 0.00 0.00 100 1013.5
20260902092355 70 221 1.7 3.5 0.00 0.00 0.00 100 1013.5
20260902092155 70 223 0.9 3.5 0.00 0.00 0.00 100 1013.5
20260902091955 70 217 0.9 3.5 0.00 0.00 0.00 100 1013.6
20260902091754 70 220 0.9 3.5 0.00 0.00 0.00 100 1013.6
20260902091554 70 232 0.9 3.5 0.00 0.00 0.00 100 1013.5
20260902091354 70 234 0.9 3.5 0.00 0.00 0.00 100 1013.5
20260902091153 70 237 0.9 3.5 0.00 0.00 0.00 100 1013.5
20260902090953 70 244 0.9 4.3 0.00 0.00 0.00 100 1013.5
20260902090753 69 237 0.9 4.3 0.00 0.00 0.00 100 1013.5
20260902090553 69 214 1.7 4.3 0.00 0.00 0.00 100 1013.5
20260902090352 69 221 1.7 4.3 0.00 0.00 0.00 100 1013.5
20260902090152 69 211 1.7 4.3 0.00 0.00 0.00 100 1013.6
20260902085952 69 217 1.7 3.5 0.00 0.00 0.00 100 1013.6
20260902085751 69 227 1.7 3.5 0.00 0.00 0.00 100 1013.7
20260902085551 69 232 1.7 3.5 0.00 0.00 0.00 100 1013.7
20260902085351 69 232 0.9 3.5 0.00 0.00 0.00 100 1013.6
20260902085150 69 219 0.9 3.5 0.00 0.00 0.00 100 1013.6
20260902084950 69 232 0.9 3.5 0.00 0.00 0.00 100 1013.6
20260902084750 69 219 1.7 3.5 0.00 0.00 0.00 100 1013.7
20260902084549 69 230 1.7 3.5 0.00 0.00 0.00 100 1013.9
20260902084349 69 233 0.9 2.6 0.00 0.00 0.00 100 1013.9
20260902084149 69 235 0.0 3.5 0.00 0.00 0.00 100 1014.0
20260902083948 69 225 0.9 4.3 0.00 0.00 0.00 100 1014.1
20260902083748 69 209 0.9 4.3 0.00 0.00 0.00 100 1014.1
20260902083548 69 214 0.9 4.3 0.00 0.00 0.00 100 1013.9
20260902083348 69 205 0.9 4.3 0.00 0.00 0.00 100 1014.0
20260902083147 69 222 0.9 4.3 0.00 0.00 0.00 100 1014.0
20260902082947 69 223 0.9 3.5 0.00 0.00 0.00 100 1014.0
20260902082747 69 226 0.9 3.5 0.00 0.00 0.00 100 1014.1
20260902082546 69 222 0.9 3.5 0.00 0.00 0.00 100 1014.1
20260902082346 69 231 0.9 3.5 0.00 0.00 0.00 100 1014.1
20260902082146 69 50 0.0 1.7 0.00 0.00 0.00 100 1014.1
20260902081945 69 50 0.0 0.9 0.00 0.00 0.00 100 1014.0
20260902081745 69 50 0.0 0.9 0.00 0.00 0.00 100 1013.9
20260902081545 69 51 0.0 0.9 0.00 0.00 0.00 100 1014.0
20260902081344 69 51 0.0 0.9 0.00 0.00 0.00 100 1014.0
20260902081144 69 0 0.0 0.9 0.00 0.00 0.00 100 1013.9
20260902080944 69 0 0.0 0.9 0.00 0.00 0.00 100 1013.9
20260902080743 69 0 0.0 0.9 0.00 0.00 0.00 100 1014.1
20260902080543 69 232 0.0 0.9 0.00 0.00 0.00 100 1014.2
20260902080343 69 232 0.0 0.9 0.00 0.00 0.00 100 1014.3
20260902080143 69 0 0.0 0.9 0.00 0.00 0.00 100 1014.4
20260902075942 69 0 0.0 0.0 0.00 0.00 0.00 100 1014.4
20260902075742 69 0 0.0 0.0 0.00 0.00 0.00 100 1014.4
20260902075542 69 0 0.0 0.0 0.00 0.00 0.00 100 1014.3
20260902075341 69 0 0.0 0.0 0.00 0.00 0.00 100 1014.3
20260902075141 69 0 0.0 0.0 0.00 0.00 0.00 100 1014.4
20260902074941 69 0 0.0 0.0 0.00 0.00 0.00 100 1014.4
20260902074740 69 0 0.0 0.0 0.00 0.00 0.00 100 1014.4
20260902074540 69 0 0.0 0.0 0.00 0.00 0.00 100 1014.4
20260902074340 69 0 0.0 0.0 0.00 0.00 0.00 100 1014.4
20260902074139 69 0 0.0 0.0 0.00 0.00 0.00 100 1014.4
20260902073939 69 0 0.0 0.0 0.00 0.00 0.00 100 1014.5
20260902073739 69 0 0.0 0.0 0.00 0.00 0.00 100 1014.5
20260902073538 69 0 0.0 0.0 0.00 0.00 0.00 100 1014.5
20260902073338 69 0 0.0 0.0 0.00 0.00 0.00 100 1014.5
20260902073138 69 0 0.0 0.0 0.00 0.00 0.00 100 1014.5
20260902072938 69 0 0.0 0.0 0.00 0.00 0.00 100 1014.5
20260902072737 69 0 0.0 0.0 0.00 0.00 0.00 100 1014.5
20260902072537 69 0 0.0 0.0 0.00 0.00 0.00 100 1014.6
20260902072337 69 0 0.0 0.0 0.00 0.00 0.00 100 1014.7
20260902072136 69 0 0.0 0.0 0.00 0.00 0.00 100 1014.7
20260902071936 69 0 0.0 0.0 0.00 0.00 0.00 100 1014.6
20260902071736 69 0 0.0 0.0 0.00 0.00 0.00 100 1014.5
20260902071535 69 0 0.0 0.0 0.00 0.00 0.00 100 1014.4
20260902071335 69 0 0.0 0.0 0.00 0.00 0.00 100 1014.4
20260902071135 69 0 0.0 0.0 0.00 0.00 0.00 100 1014.4
20260902070934 69 0 0.0 0.0 0.00 0.00 0.00 100 1014.4
20260902070734 69 0 0.0 0.0 0.00 0.00 0.00 100 1014.3
20260902070534 69 0 0.0 0.9 0.00 0.00 0.00 100 1014.4
20260902070334 69 0 0.0 1.7 0.00 0.00 0.00 100 1014.5
20260902070133 69 0 0.0 1.7 0.00 0.00 0.00 100 1014.5
20260902065933 69 0 0.0 1.7 0.00 0.00 0.00 100 1014.6
20260902065733 69 12 0.0 1.7 0.00 0.00 0.00 100 1014.7
20260902065532 69 12 0.0 1.7 0.00 0.00 0.00 100 1014.8
20260902065332 69 12 0.0 0.9 0.00 0.00 0.00 100 1014.8
20260902065132 69 0 0.0 0.9 0.00 0.00 0.00 100 1014.9
20260902064931 69 0 0.0 0.0 0.00 0.00 0.00 100 1014.8
20260902064731 69 0 0.0 0.9 0.00 0.00 0.00 100 1014.8
20260902064531 69 0 0.0 1.7 0.00 0.00 0.00 100 1014.7
20260902064330 69 0 0.0 1.7 0.00 0.00 0.00 100 1014.8
20260902064130 69 12 0.0 1.7 0.00 0.00 0.00 100 1014.8
20260902063930 69 12 0.0 1.7 0.00 0.00 0.00 100 1014.7
20260902063730 69 12 0.0 1.7 0.00 0.00 0.00 100 1014.8
20260902063529 69 0 0.0 0.0 0.00 0.00 0.00 100 1014.8
20260902063329 69 0 0.0 0.0 0.00 0.00 0.00 100 1014.8
20260902063129 69 0 0.0 0.0 0.00 0.00 0.00 100 1014.7
20260902062928 69 0 0.0 0.0 0.00 0.00 0.00 100 1014.7
20260902062728 69 0 0.0 0.0 0.00 0.00 0.00 100 1014.7
20260902062528 69 0 0.0 0.0 0.00 0.00 0.00 100 1014.8
20260902062327 69 0 0.0 0.0 0.00 0.00 0.00 100 1014.8
20260902062127 69 0 0.0 0.0 0.00 0.00 0.00 100 1014.7
20260902061927 69 0 0.0 0.0 0.00 0.00 0.00 100 1014.7
20260902061726 69 0 0.0 0.0 0.00 0.00 0.00 100 1014.7
20260902061526 69 0 0.0 0.9 0.00 0.00 0.00 100 1014.8
20260902061326 69 0 0.0 0.9 0.00 0.00 0.00 100 1014.7
20260902061125 69 0 0.0 0.9 0.00 0.00 0.00 100 1014.8
20260902060925 69 0 0.0 1.7 0.00 0.00 0.00 100 1014.9
20260902060725 69 12 0.0 1.7 0.00 0.00 0.00 100 1014.9
20260902060525 69 0 0.0 1.7 0.00 0.00 0.00 100 1014.9
20260902060324 69 12 0.9 1.7 0.00 0.00 0.00 100 1014.9
20260902060124 69 12 0.9 1.7 0.00 0.00 0.00 100 1014.9
20260902055924 69 12 0.0 1.7 0.00 0.00 0.00 100 1014.9
20260902055723 69 12 0.0 1.7 0.00 0.00 0.00 100 1014.9
20260902055523 69 12 0.0 1.7 0.00 0.00 0.00 100 1015.0
20260902055323 69 0 0.0 0.9 0.00 0.00 0.00 100 1015.0
20260902055122 69 12 0.0 0.9 0.00 0.00 0.00 100 1014.9
20260902054922 69 12 0.0 0.9 0.00 0.00 0.00 100 1015.0
20260902054722 69 12 0.0 0.9 0.00 0.00 0.00 100 1015.0
20260902054521 69 12 0.0 0.9 0.00 0.00 0.00 100 1015.0
20260902054321 69 12 0.0 0.9 0.00 0.00 0.00 100 1015.2
20260902054121 69 0 0.0 0.9 0.00 0.00 0.00 100 1015.2
20260902053920 69 0 0.0 0.9 0.00 0.00 0.00 100 1015.2
20260902053720 69 12 0.0 0.9 0.00 0.00 0.00 100 1015.2
20260902053520 69 12 0.0 0.9 0.00 0.00 0.00 100 1015.2
20260902053320 69 0 0.0 0.9 0.00 0.00 0.00 100 1015.3
20260902053119 69 0 0.0 0.9 0.00 0.00 0.00 100 1015.2
20260902052919 69 0 0.0 0.9 0.00 0.00 0.00 100 1015.2
20260902052719 69 12 0.0 0.9 0.00 0.00 0.00 100 1015.2
20260902052518 69 0 0.0 0.9 0.00 0.00 0.00 100 1015.2
20260902052318 69 12 0.0 0.9 0.00 0.00 0.00 100 1015.2
20260902052118 69 12 0.0 0.9 0.00 0.00 0.00 100 1015.2
20260902051917 69 12 0.0 0.9 0.00 0.00 0.00 100 1015.1
20260902051717 69 0 0.0 0.9 0.00 0.00 0.00 100 1015.2
20260902051517 69 12 0.0 0.9 0.00 0.00 0.00 100 1015.2
20260902051316 69 12 0.0 1.7 0.00 0.00 0.00 100 1015.2
20260902051116 69 12 0.0 1.7 0.00 0.00 0.00 100 1015.2
20260902050916 69 0 0.0 1.7 0.00 0.00 0.00 100 1015.2
20260902050715 69 12 0.0 1.7 0.00 0.00 0.00 100 1015.1
20260902050515 69 12 0.0 1.7 0.00 0.00 0.00 100 1015.1
20260902050315 69 12 0.0 2.6 0.00 0.00 0.00 100 1015.1
20260902050115 69 47 0.0 2.6 0.00 0.00 0.00 100 1015.1
20260902045914 69 67 0.0 2.6 0.00 0.00 0.00 100 1015.1
20260902045714 69 75 0.0 2.6 0.00 0.00 0.00 100 1015.1
20260902045514 69 51 0.0 2.6 0.00 0.00 0.00 100 1015.1
20260902045313 69 41 0.0 1.7 0.00 0.00 0.00 100 1015.1
20260902045113 69 41 0.0 1.7 0.00 0.00 0.00 100 1015.2
20260902044913 69 40 0.0 1.7 0.00 0.00 0.00 100 1015.2
20260902044712 69 58 0.0 1.7 0.00 0.00 0.00 100 1015.1
20260902044512 69 62 0.0 1.7 0.00 0.00 0.00 100 1015.2
20260902044312 69 63 0.0 1.7 0.00 0.00 0.00 100 1015.2
20260902044111 69 63 0.0 2.6 0.00 0.00 0.00 100 1015.2
20260902043911 69 63 0.0 2.6 0.00 0.00 0.00 100 1015.2
20260902043711 69 63 0.0 3.5 0.00 0.00 0.00 100 1015.1
20260902043510 69 63 0.0 3.5 0.00 0.00 0.00 100 1015.2
20260902043310 69 68 0.9 3.5 0.00 0.00 0.00 100 1015.1
20260902043110 69 77 0.9 3.5 0.00 0.00 0.00 100 1015.1
20260902042909 69 58 0.0 0.9 0.00 0.00 0.00 100 1015.1
20260902042709 69 58 0.0 1.7 0.00 0.00 0.00 100 1015.2
20260902042509 69 58 0.0 2.6 0.00 0.00 0.00 100 1015.1
20260902042309 69 58 0.0 3.5 0.00 0.00 0.00 100 1015.1
20260902042108 69 65 0.0 4.3 0.00 0.00 0.00 100 1015.0
20260902041908 69 66 0.9 4.3 0.00 0.00 0.00 100 1015.0
20260902041708 69 67 0.9 4.3 0.00 0.00 0.00 100 1015.0
20260902041507 69 67 1.7 4.3 0.00 0.00 0.00 100 1014.9
20260902041307 69 81 0.9 4.3 0.00 0.00 0.00 100 1014.9
20260902041107 69 89 0.0 2.6 0.00 0.00 0.00 100 1014.9
20260902040906 69 89 0.0 2.6 0.00 0.00 0.00 100 1015.0
20260902040706 69 87 0.0 2.6 0.00 0.00 0.00 100 1015.0
20260902040506 69 48 0.0 2.6 0.00 0.00 0.00 100 1014.9
20260902040305 69 25 0.0 3.5 0.00 0.00 0.00 100 1014.9
20260902040105 69 35 0.0 3.5 0.00 0.00 0.00 100 1014.9
20260902035905 69 73 0.9 3.5 0.00 0.00 0.00 100 1014.8
20260902035705 69 59 0.9 3.5 0.00 0.00 0.00 100 1014.8
20260902035504 69 51 1.7 3.5 0.00 0.00 0.00 100 1014.9
20260902035305 69 17 0.9 2.6 0.00 0.00 0.00 100 1015.0
20260902035104 69 31 0.0 3.5 0.00 0.00 0.00 100 1015.0
20260902034903 69 40 0.0 3.5 0.00 0.00 0.00 100 1015.0
20260902034703 69 46 0.9 3.5 0.00 0.00 0.00 100 1014.9
20260902034503 69 61 0.9 3.5 0.00 0.00 0.00 100 1015.0
20260902034302 69 49 0.9 2.6 0.00 0.00 0.00 100 1014.9
20260902034102 69 21 0.9 2.6 0.00 0.00 0.00 100 1014.9
20260902033902 69 29 0.0 2.6 0.00 0.00 0.00 100 1014.9
20260902033702 69 27 0.0 2.6 0.00 0.00 0.00 100 1015.0
20260902033501 69 31 0.0 2.6 0.00 0.00 0.00 100 1014.9
20260902033301 69 37 0.9 2.6 0.00 0.00 0.00 100 1015.0
20260902033100 69 27 0.9 2.6 0.00 0.00 0.00 100 1014.9
20260902032900 69 46 0.9 2.6 0.00 0.00 0.00 100 1014.9
20260902032700 69 60 0.9 2.6 0.00 0.00 0.00 100 1014.9
20260902032500 69 60 0.0 2.6 0.00 0.00 0.00 100 1015.0
20260902032259 69 60 0.0 2.6 0.00 0.00 0.00 100 1015.0
20260902032059 69 60 0.9 4.3 0.00 0.00 0.00 100 1015.0
20260902031859 69 59 0.0 4.3 0.00 0.00 0.00 100 1015.0
20260902031658 69 59 0.0 4.3 0.00 0.00 0.00 100 1014.9
20260902031458 69 50 1.7 4.3 0.00 0.00 0.00 100 1014.9
20260902031258 69 35 0.9 4.3 0.00 0.00 0.00 100 1014.9
20260902031057 69 32 0.0 3.5 0.00 0.00 0.00 100 1015.0
20260902030857 69 32 0.0 3.5 0.00 0.00 0.00 100 1014.9
20260902030657 69 34 0.9 3.5 0.00 0.00 0.00 100 1014.9
20260902030456 69 45 0.9 3.5 0.00 0.00 0.00 100 1014.9
20260902030256 69 48 0.0 3.5 0.00 0.00 0.00 100 1014.9
20260902030056 69 48 0.0 3.5 0.00 0.00 0.00 100 1014.9
20260902025856 69 48 0.0 3.5 0.00 0.01 0.00 100 1014.9
20260902025655 69 47 0.9 3.5 0.00 0.01 0.00 100 1014.9
20260902025455 69 40 0.9 3.5 0.00 0.01 0.00 100 1015.0
20260902025255 69 51 0.0 3.5 0.00 0.01 0.00 100 1014.9
20260902025054 69 40 0.9 3.5 0.00 0.01 0.00 100 1014.9
20260902024854 69 40 0.9 3.5 0.00 0.01 0.00 100 1014.8
20260902024654 69 41 0.0 3.5 0.00 0.01 0.00 100 1014.8
20260902024453 69 41 0.0 3.5 0.00 0.01 0.00 100 1014.9
20260902024253 69 31 0.9 4.3 0.00 0.01 0.00 100 1015.0
20260902024053 69 23 0.9 4.3 0.00 0.01 0.00 100 1014.9
20260902023852 69 28 0.0 4.3 0.00 0.01 0.00 100 1014.9
20260902023652 69 28 0.0 4.3 0.00 0.01 0.00 100 1014.8
20260902023452 69 29 0.9 4.3 0.00 0.01 0.00 100 1014.8
20260902023252 69 52 0.9 4.3 0.00 0.01 0.00 100 1014.8
20260902023051 69 302 0.9 2.6 0.00 0.01 0.00 100 1014.8
20260902022851 69 356 0.0 2.6 0.00 0.01 0.00 100 1014.9
20260902022651 69 31 0.0 2.6 0.00 0.01 0.00 100 1014.8
20260902022450 69 41 0.0 2.6 0.00 0.01 0.00 100 1014.9
20260902022250 69 31 0.0 2.6 0.00 0.01 0.00 100 1014.9
20260902022050 69 17 0.9 2.6 0.00 0.01 0.00 100 1014.9
20260902021849 69 6 0.9 2.6 0.00 0.01 0.00 100 1014.9
20260902021649 69 6 0.0 2.6 0.00 0.01 0.00 100 1014.9
20260902021449 69 9 0.9 2.6 0.00 0.01 0.00 100 1014.8
20260902021248 69 2 0.9 2.6 0.00 0.01 0.00 100 1014.9
20260902021048 69 10 0.0 2.6 0.00 0.01 0.00 100 1014.7
20260902020848 69 26 0.0 2.6 0.00 0.01 0.00 100 1014.8
20260902020648 69 24 0.0 2.6 0.00 0.01 0.00 100 1014.8
20260902020447 69 19 0.0 2.6 0.00 0.01 0.00 99 1014.7
20260902020247 69 8 0.9 3.5 0.00 0.01 0.00 99 1014.8
20260902020047 69 4 0.0 3.5 0.00 0.01 0.00 99 1014.7
20260902015846 69 4 0.0 3.5 0.00 0.01 0.00 99 1014.8
20260902015646 69 4 0.0 3.5 0.00 0.01 0.00 99 1014.8
20260902015446 69 4 0.9 3.5 0.00 0.01 0.00 99 1014.9
20260902015245 69 3 0.0 2.6 0.00 0.01 0.00 99 1014.9
20260902015045 69 3 0.0 2.6 0.00 0.01 0.00 99 1014.9
20260902014845 69 356 0.0 2.6 0.00 0.01 0.00 99 1014.9
20260902014644 69 7 0.9 2.6 0.00 0.01 0.00 99 1014.9
20260902014444 69 23 0.9 2.6 0.00 0.01 0.00 99 1014.9
20260902014244 69 50 0.0 3.5 0.00 0.01 0.00 99 1014.9
20260902014043 69 53 0.0 3.5 0.00 0.01 0.00 99 1014.9
20260902013843 69 14 0.9 3.5 0.00 0.01 0.00 99 1014.9
20260902013643 69 29 0.9 3.5 0.00 0.01 0.00 98 1015.0
20260902013442 69 50 0.9 3.5 0.00 0.01 0.00 98 1014.9
20260902013242 69 20 0.9 3.5 0.00 0.01 0.00 98 1014.8
20260902013042 69 355 0.9 3.5 0.00 0.01 0.00 98 1014.8
20260902012842 70 336 0.0 3.5 0.00 0.01 0.00 98 1014.8
20260902012641 70 323 0.0 3.5 0.00 0.01 0.00 98 1014.9
20260902012441 70 349 0.0 3.5 0.00 0.01 0.00 98 1014.8
20260902012241 70 349 0.0 3.5 0.00 0.01 0.00 98 1014.8
20260902012040 70 359 0.9 3.5 0.00 0.01 0.00 98 1014.8
20260902011840 70 5 0.9 3.5 0.00 0.01 0.00 98 1014.8
20260902011640 70 1 0.9 3.5 0.00 0.01 0.00 98 1014.8
20260902011439 70 19 0.0 2.6 0.00 0.01 0.00 98 1014.8
20260902011239 70 55 0.0 2.6 0.00 0.01 0.00 98 1014.8
20260902011039 70 51 0.0 2.6 0.00 0.01 0.00 98 1014.8
20260902010838 70 27 0.0 2.6 0.00 0.01 0.00 97 1014.8
20260902010638 70 24 0.0 3.5 0.00 0.01 0.00 97 1014.8
20260902010438 70 5 0.0 3.5 0.00 0.01 0.00 97 1014.8
20260902010238 70 348 0.0 4.3 0.00 0.01 0.00 97 1014.7
20260902010037 70 5 0.0 4.3 0.00 0.01 0.00 97 1014.7
20260902005837 70 46 0.9 4.3 0.00 0.01 0.00 96 1014.7
20260902005637 71 57 1.7 4.3 0.00 0.01 0.00 96 1014.8
20260902005436 71 41 0.9 4.3 0.00 0.01 0.00 96 1014.7
20260902005236 71 18 0.9 3.5 0.00 0.01 0.00 96 1014.7
20260902005036 71 28 0.9 3.5 0.00 0.01 0.00 96 1014.6
20260902004835 71 41 0.9 3.5 0.00 0.01 0.00 96 1014.6
20260902004635 71 30 0.0 3.5 0.00 0.01 0.00 96 1014.5
20260902004435 71 31 0.9 3.5 0.00 0.01 0.00 96 1014.6
20260902004234 71 20 0.9 3.5 0.00 0.01 0.00 96 1014.5
20260902004034 71 27 0.0 3.5 0.00 0.01 0.00 96 1014.5
20260902003834 71 44 0.9 3.5 0.00 0.01 0.00 95 1014.4
20260902003633 72 50 0.9 3.5 0.00 0.01 0.00 95 1014.5
20260902003433 72 48 0.0 2.6 0.00 0.01 0.00 96 1014.5
20260902003233 72 39 0.0 2.6 0.00 0.01 0.00 95 1014.4
20260902003033 72 39 0.0 2.6 0.00 0.01 0.00 95 1014.5
20260902002832 72 37 0.0 2.6 0.00 0.01 0.00 95 1014.4
20260902002632 72 36 0.9 2.6 0.00 0.01 0.00 95 1014.4
20260902002432 72 35 0.9 2.6 0.00 0.01 0.00 95 1014.3
20260902002231 72 44 0.0 2.6 0.00 0.01 0.00 95 1014.3
20260902002031 72 44 0.9 2.6 0.00 0.01 0.00 95 1014.3
20260902001831 72 33 0.9 2.6 0.00 0.01 0.00 95 1014.2
20260902001630 72 49 0.9 2.6 0.00 0.01 0.00 94 1014.2
20260902001430 72 43 0.9 4.3 0.00 0.01 0.00 94 1014.3
20260902001230 72 41 0.9 4.3 0.00 0.01 0.00 94 1014.3
20260902001029 72 41 0.0 4.3 0.00 0.01 0.00 94 1014.2
20260902000829 72 49 0.9 4.3 0.00 0.01 0.00 94 1014.3
20260902000629 73 56 0.9 4.3 0.00 0.01 0.00 94 1014.3
20260902000429 73 56 0.9 4.3 0.00 0.01 0.00 94 1014.3
20260902000228 73 55 0.0 1.7 0.00 0.01 0.00 94 1014.4
20260902000028 73 48 0.0 2.6 0.00 0.01 0.00 94 1014.4
20260901235828 73 36 0.0 2.6 0.00 0.01 0.00 93 1014.4
20260901235627 73 35 0.0 2.6 0.00 0.01 0.00 93 1014.4
20260901235427 73 35 0.0 2.6 0.00 0.01 0.00 93 1014.4
20260901235227 73 49 0.9 2.6 0.00 0.01 0.00 93 1014.4
20260901235026 73 68 0.9 2.6 0.00 0.01 0.00 93 1014.4
20260901234826 73 50 0.9 2.6 0.00 0.01 0.00 93 1014.4
20260901234626 74 51 0.9 2.6 0.00 0.01 0.00 93 1014.4
20260901234426 74 79 0.0 1.7 0.00 0.01 0.00 93 1014.5
20260901234225 74 71 0.0 3.5 0.00 0.01 0.00 92 1014.4
20260901234025 74 31 0.0 4.3 0.00 0.01 0.00 92 1014.4
20260901233824 74 31 0.0 4.3 0.00 0.01 0.00 92 1014.4
20260901233624 74 57 0.9 4.3 0.00 0.01 0.00 92 1014.4
20260901233424 74 61 0.9 4.3 0.00 0.01 0.00 92 1014.4
20260901233223 74 22 0.9 4.3 0.00 0.01 0.00 92 1014.4
20260901233023 74 24 0.0 3.5 0.00 0.01 0.00 91 1014.3
20260901232823 74 67 0.9 2.6 0.00 0.01 0.00 91 1014.3
20260901232623 74 81 0.9 2.6 0.00 0.01 0.00 91 1014.3
20260901232422 74 53 0.9 2.6 0.00 0.01 0.00 91 1014.3
20260901232222 75 31 0.9 2.6 0.00 0.01 0.00 91 1014.3
20260901232022 75 24 0.0 2.6 0.00 0.01 0.00 91 1014.4
20260901231821 75 25 0.9 2.6 0.00 0.01 0.00 90 1014.4
20260901231621 75 57 0.9 1.7 0.00 0.01 0.00 90 1014.4
20260901231421 75 79 0.0 1.7 0.00 0.01 0.00 90 1014.4
20260901231220 75 45 0.0 3.5 0.00 0.01 0.00 91 1014.4
20260901231020 75 31 0.0 3.5 0.00 0.01 0.00 91 1014.4
20260901230820 75 32 0.0 3.5 0.00 0.01 0.00 90 1014.4
20260901230619 75 27 0.9 3.5 0.00 0.01 0.00 90 1014.4
20260901230419 75 13 0.9 3.5 0.00 0.01 0.00 90 1014.4
20260901230219 75 18 0.9 2.6 0.00 0.01 0.00 89 1014.4
20260901230019 76 56 0.9 2.6 0.00 0.01 0.00 89 1014.4
20260901225818 76 53 0.9 2.6 0.00 0.01 0.00 89 1014.5
20260901225618 76 59 0.0 2.6 0.00 0.01 0.00 89 1014.4
20260901225418 76 70 0.0 3.5 0.00 0.01 0.00 89 1014.4
20260901225217 76 53 0.0 3.5 0.00 0.01 0.00 89 1014.5
20260901225017 76 51 0.0 3.5 0.00 0.01 0.00 89 1014.4
20260901224817 76 56 0.9 3.5 0.00 0.01 0.00 89 1014.4
20260901224616 76 65 0.9 1.7 0.00 0.01 0.00 89 1014.3
20260901224416 76 63 0.0 1.7 0.00 0.01 0.00 88 1014.4
20260901224216 76 44 0.0 1.7 0.00 0.01 0.00 88 1014.4
20260901224015 76 12 0.0 1.7 0.00 0.01 0.00 89 1014.5
20260901223815 76 12 0.0 1.7 0.00 0.01 0.00 89 1014.4
20260901223615 76 12 0.9 1.7 0.00 0.01 0.00 88 1014.5
20260901223414 76 11 0.0 1.7 0.00 0.01 0.00 88 1014.5
20260901223214 76 14 0.0 3.5 0.00 0.01 0.00 88 1014.5
20260901223014 76 41 0.0 4.3 0.00 0.01 0.00 88 1014.5
20260901222814 76 22 0.0 4.3 0.00 0.01 0.00 87 1014.5
20260901222613 77 10 0.9 4.3 0.00 0.01 0.00 87 1014.5
20260901222413 77 29 1.7 4.3 0.00 0.01 0.00 87 1014.5
20260901222213 77 57 1.7 4.3 0.00 0.01 0.00 86 1014.5
20260901222012 77 39 0.9 4.3 0.00 0.01 0.00 86 1014.5
20260901221812 78 21 1.7 5.2 0.00 0.01 0.00 85 1014.5
20260901221612 78 56 1.7 5.2 0.00 0.01 0.00 84 1014.6
20260901221411 79 54 1.7 5.2 0.00 0.01 0.00 84 1014.6
20260901221211 79 28 2.6 5.2 0.00 0.01 0.00 84 1014.6
20260901221011 80 30 1.7 6.1 0.00 0.01 0.00 82 1014.6
20260901220810 80 45 1.7 7.0 0.00 0.01 0.00 82 1014.6
20260901220610 81 34 0.9 7.0 0.00 0.01 0.00 82 1014.6
20260901220410 81 30 1.7 7.0 0.00 0.01 0.00 82 1014.6
20260901220209 81 41 2.6 7.0 0.00 0.01 0.00 81 1014.6
20260901220009 82 30 1.7 6.1 0.00 0.01 0.00 80 1014.5
20260901215809 82 30 1.7 6.1 0.00 0.01 0.00 80 1014.6
20260901215609 82 37 2.6 5.2 0.00 0.01 0.00 80 1014.5
20260901215408 82 70 1.7 5.2 0.00 0.01 0.00 78 1014.5
20260901215208 83 71 1.7 5.2 0.00 0.01 0.00 78 1014.5
20260901215008 83 36 2.6 5.2 0.00 0.01 0.00 78 1014.5
20260901214807 84 31 1.7 4.3 0.00 0.01 0.00 77 1014.4
20260901214607 84 46 0.9 3.5 0.00 0.01 0.00 77 1014.3
20260901214407 84 68 0.9 3.5 0.00 0.01 0.00 77 1014.4
20260901213906 84 39 1.7 5.2 0.00 0.01 0.00 76 1014.3
20260901213706 84 39 0.0 5.2 0.00 0.01 0.00 76 1014.3
20260901213505 84 80 0.0 5.2 0.00 0.01 0.00 77 1014.3
20260901213305 84 70 0.9 5.2 0.00 0.01 0.00 77 1014.3
20260901213105 84 33 0.9 5.2 0.00 0.01 0.00 76 1014.3
20260901212904 84 20 0.9 4.3 0.00 0.01 0.00 77 1014.3
20260901212704 84 24 0.9 4.3 0.00 0.01 0.00 77 1014.3
20260901212504 84 33 0.9 5.2 0.00 0.01 0.00 77 1014.2
20260901212306 84 22 1.7 5.2 0.00 0.01 0.00 77 1014.2
20260901212103 84 50 1.7 5.2 0.00 0.01 0.00 77 1014.2
20260901211903 84 38 2.6 5.2 0.00 0.01 0.00 76 1014.1
20260901211702 84 38 2.6 5.2 0.00 0.01 0.00 76 1014.3
20260901211502 85 29 1.7 3.5 0.00 0.01 0.00 76 1014.2
20260901211302 85 53 1.7 3.5 0.00 0.01 0.00 75 1014.2
20260901211102 85 36 1.7 3.5 0.00 0.01 0.00 74 1014.1
20260901210901 86 35 1.7 3.5 0.00 0.01 0.00 74 1014.2
20260901210701 86 41 0.9 3.5 0.00 0.01 0.00 74 1014.1
20260901210501 86 16 0.9 2.6 0.00 0.01 0.00 74 1014.1
20260901210300 86 2 0.9 2.6 0.00 0.01 0.00 73 1014.2
20260901210100 86 4 1.7 2.6 0.00 0.01 0.00 73 1014.2
20260901205900 86 10 0.9 2.6 0.00 0.02 0.00 73 1014.2
20260901205659 86 15 0.9 2.6 0.00 0.02 0.00 75 1014.1
20260901205459 86 21 0.9 2.6 0.00 0.02 0.00 74 1014.1
20260901205259 86 26 0.9 2.6 0.00 0.02 0.00 74 1014.1
20260901205058 86 22 0.9 2.6 0.00 0.02 0.00 74 1014.1
20260901204858 86 11 0.9 4.3 0.00 0.02 0.00 74 1014.1
20260901204658 86 39 1.7 4.3 0.00 0.02 0.00 75 1014.0
20260901204457 85 57 1.7 4.3 0.00 0.02 0.00 74 1014.1
20260901204257 85 60 1.7 4.3 0.00 0.02 0.00 75 1014.1
20260901204057 85 29 2.6 4.3 0.00 0.02 0.00 74 1013.9
20260901203857 86 16 1.7 4.3 0.00 0.02 0.00 74 1014.0
20260901203656 86 47 1.7 2.6 0.00 0.02 0.00 73 1013.9
20260901203456 87 58 0.0 2.6 0.00 0.02 0.00 72 1013.9
20260901203256 87 31 0.9 2.6 0.00 0.02 0.00 73 1014.0
20260901203055 87 50 0.0 2.6 0.00 0.02 0.00 72 1014.0
20260901202855 87 35 0.0 1.7 0.00 0.02 0.00 73 1014.0
20260901202655 87 274 0.0 2.6 0.00 0.02 0.00 72 1014.0
20260901202454 87 244 0.9 2.6 0.00 0.02 0.00 72 1014.0
20260901202254 88 346 0.9 2.6 0.00 0.02 0.00 72 1014.0
20260901202054 88 298 0.9 2.6 0.00 0.02 0.00 72 1014.0
20260901201853 88 23 1.7 2.6 0.00 0.02 0.00 71 1014.0
20260901201653 88 29 0.9 2.6 0.00 0.02 0.00 73 1014.0
20260901201453 88 46 1.7 3.5 0.00 0.02 0.00 72 1014.0
20260901201253 87 64 0.9 3.5 0.00 0.02 0.00 72 1014.1
20260901201052 87 48 1.7 3.5 0.00 0.02 0.00 72 1014.1
20260901200852 87 40 1.7 3.5 0.00 0.02 0.00 73 1014.1
20260901200652 87 26 0.9 6.1 0.00 0.02 0.00 73 1014.1
20260901200451 87 307 0.9 6.1 0.00 0.02 0.00 73 1014.1
20260901200251 87 22 1.7 6.1 0.00 0.02 0.00 73 1014.1
20260901200051 87 48 2.6 6.1 0.00 0.02 0.00 74 1014.1
20260901195850 86 37 1.7 6.1 0.00 0.02 0.00 74 1014.1
20260901195650 86 23 1.7 5.2 0.00 0.02 0.00 74 1014.2
20260901195450 86 39 1.7 5.2 0.00 0.02 0.00 74 1014.2
20260901195249 86 40 1.7 5.2 0.00 0.02 0.00 75 1014.2
20260901195049 85 45 1.7 4.3 0.00 0.02 0.00 76 1014.3
20260901194849 84 49 1.7 4.3 0.00 0.02 0.00 76 1014.3
20260901194648 84 58 1.7 4.3 0.00 0.02 0.00 76 1014.3
20260901194448 85 73 1.7 4.3 0.00 0.02 0.00 76 1014.4
20260901194248 85 48 0.9 4.3 0.00 0.02 0.00 76 1014.3
20260901194048 85 23 0.9 4.3 0.00 0.02 0.00 77 1014.3
20260901193847 85 16 0.9 5.2 0.00 0.02 0.00 77 1014.2
20260901193647 84 4 0.9 5.2 0.00 0.02 0.00 77 1014.2
20260901193447 84 43 0.9 5.2 0.00 0.02 0.00 77 1014.3
20260901193246 84 39 1.7 5.2 0.00 0.02 0.00 77 1014.2
20260901193046 84 18 0.9 5.2 0.00 0.02 0.00 76 1014.2
20260901192846 85 29 0.9 5.2 0.00 0.02 0.00 76 1014.3
20260901192645 85 53 1.7 5.2 0.00 0.02 0.00 76 1014.3
20260901192445 85 44 1.7 5.2 0.00 0.02 0.00 77 1014.3
20260901192245 85 29 1.7 5.2 0.00 0.02 0.00 77 1014.3
20260901192044 85 14 1.7 5.2 0.00 0.02 0.00 76 1014.3
20260901191844 85 33 1.7 4.3 0.00 0.02 0.00 76 1014.4
20260901191644 85 48 1.7 4.3 0.00 0.02 0.00 75 1014.4
20260901191443 85 28 1.7 4.3 0.00 0.02 0.00 75 1014.4
20260901191243 86 14 1.7 4.3 0.00 0.02 0.00 75 1014.5
20260901191043 86 10 1.7 4.3 0.00 0.02 0.00 74 1014.4
20260901190843 87 21 1.7 4.3 0.00 0.02 0.00 73 1014.4
20260901190642 88 38 0.9 4.3 0.00 0.02 0.00 72 1014.3
20260901190442 89 31 1.7 4.3 0.00 0.02 0.00 72 1014.3
20260901190242 89 237 0.0 2.6 0.00 0.02 0.00 72 1014.4
20260901190041 90 228 0.9 2.6 0.00 0.02 0.00 72 1014.3
20260901185841 90 223 0.9 2.6 0.00 0.03 0.00 71 1014.3
20260901185641 89 162 0.0 1.7 0.00 0.03 0.00 72 1014.2
20260901185440 89 136 0.0 1.7 0.00 0.03 0.00 72 1014.2
20260901185240 89 136 0.0 1.7 0.00 0.03 0.00 72 1014.2
20260901185040 89 129 0.0 3.5 0.00 0.03 0.00 72 1014.2
20260901184839 89 18 0.0 3.5 0.00 0.03 0.00 73 1014.2
20260901184639 89 5 0.0 3.5 0.00 0.03 0.00 72 1014.2
20260901184439 88 359 0.9 3.5 0.00 0.03 0.00 73 1014.2
20260901184239 89 58 0.9 3.5 0.00 0.03 0.00 72 1014.2
20260901184038 89 15 0.0 3.5 0.00 0.03 0.00 72 1014.2
20260901183838 89 15 0.0 1.7 0.00 0.03 0.00 72 1014.2
20260901183638 89 15 0.9 1.7 0.00 0.03 0.00 72 1014.2
20260901183437 89 15 0.9 1.7 0.00 0.03 0.00 72 1014.2
20260901183237 89 17 0.9 3.5 0.00 0.03 0.00 73 1014.3
20260901183037 88 8 0.9 4.3 0.00 0.03 0.00 73 1014.2
20260901182836 88 7 0.0 4.3 0.00 0.03 0.00 74 1014.2
20260901182636 88 46 0.0 4.3 0.00 0.03 0.00 74 1014.2
20260901182436 88 39 0.9 4.3 0.00 0.03 0.00 74 1014.3
20260901182235 88 22 1.7 4.3 0.00 0.03 0.00 73 1014.3
20260901182035 88 9 1.7 3.5 0.00 0.03 0.00 72 1014.3
20260901181835 88 350 0.9 2.6 0.00 0.03 0.00 72 1014.3
20260901181634 89 347 0.9 1.7 0.00 0.03 0.00 72 1014.4
20260901181434 89 327 0.9 1.7 0.00 0.03 0.00 71 1014.5
20260901181234 89 322 0.9 1.7 0.00 0.03 0.00 73 1014.4
20260901181033 88 244 0.9 1.7 0.00 0.03 0.00 73 1014.4
20260901180833 88 129 0.9 1.7 0.00 0.03 0.00 75 1014.4
20260901180633 87 252 0.0 1.7 0.00 0.03 0.00 75 1014.5
20260901180433 87 253 0.0 1.7 0.00 0.03 0.00 75 1014.5
20260901180232 86 294 0.0 2.6 0.00 0.03 0.00 75 1014.5
20260901180032 86 328 0.0 3.5 0.00 0.03 0.00 76 1014.5
20260901175832 86 254 0.9 3.5 0.00 0.03 0.00 76 1014.5
20260901175631 86 222 0.9 3.5 0.00 0.03 0.00 77 1014.4
20260901175431 86 186 0.9 4.3 0.00 0.03 0.00 77 1014.4
20260901175231 85 207 0.9 4.3 0.00 0.03 0.00 78 1014.3
20260901175030 85 154 0.9 4.3 0.00 0.03 0.00 78 1014.4
20260901174830 85 196 0.9 4.3 0.00 0.03 0.00 78 1014.3
20260901174630 85 207 0.9 4.3 0.00 0.03 0.00 78 1014.3
20260901174429 85 211 0.9 4.3 0.00 0.03 0.00 77 1014.2
20260901174229 85 209 0.9 4.3 0.00 0.03 0.00 77 1014.3
20260901174029 85 206 1.7 4.3 0.00 0.03 0.00 78 1014.2
20260901173829 85 206 1.7 4.3 0.00 0.03 0.00 77 1014.2
20260901173628 85 187 0.9 3.5 0.00 0.03 0.00 77 1014.1
20260901173428 85 184 0.9 3.5 0.00 0.03 0.00 77 1014.2
20260901173228 85 226 0.9 6.1 0.00 0.03 0.00 77 1014.2
20260901173027 85 217 0.9 6.1 0.00 0.03 0.00 77 1014.1
20260901172827 85 188 0.9 6.1 0.00 0.03 0.00 78 1014.1
20260901172627 85 199 2.6 6.1 0.00 0.03 0.00 77 1014.0
20260901172426 85 220 1.7 6.1 0.00 0.03 0.00 77 1014.0
20260901172226 85 226 0.9 3.5 0.00 0.03 0.00 76 1014.1
20260901172026 85 215 1.7 3.5 0.00 0.03 0.00 76 1014.0
20260901171825 86 209 1.7 3.5 0.00 0.03 0.00 76 1014.0
20260901171625 86 198 0.9 3.5 0.00 0.03 0.00 76 1014.1
20260901171425 86 219 0.9 2.6 0.00 0.03 0.00 76 1014.1
20260901171224 86 216 0.9 2.6 0.00 0.03 0.00 76 1014.1
20260901171024 86 221 0.9 3.5 0.00 0.03 0.00 76 1014.1
20260901170824 86 234 0.9 3.5 0.00 0.03 0.00 76 1014.1
20260901170624 86 187 0.9 3.5 0.00 0.03 0.00 75 1014.1
20260901170423 86 208 1.7 3.5 0.00 0.03 0.00 75 1014.1
20260901170223 86 195 1.7 3.5 0.00 0.03 0.00 75 1014.1
20260901170023 86 217 0.9 3.5 0.00 0.03 0.00 76 1014.1
20260901165822 86 182 0.9 3.5 0.00 0.03 0.00 76 1014.0
20260901165622 86 191 1.7 3.5 0.00 0.03 0.00 75 1014.1